BREEZE-M DEB (TANK), 55843

Orbit data source: Space-Track

BREEZE-M DEB (TANK), 55843 is space debris in HEO originally from a launch on Sun, 12 Mar 2023 UTC launched from the Tyuratam Missile And Space Complex (TTMTR). Debris objects in space refer to the collection of defunct objects orbiting the Earth. Examples of debris include non-operational satellites, rocket bodies, and fragments generated from explosions, collisions, or faulty payload assembly.

Loading next visibility...
BREEZE-M DEB (TANK) details
Identifier
55843, 2023-031C
Orbit
HEO
Last TLE update1 day ago
Origin
Flag of CISKhrunichev (CIS)
ManufacturerKhrunichev
MissionSpacecraft
Bus & MotorBRIZ TANK, Unknown motor
Mass~1,000 kg wet, 1,000 kg dry
Launch date (UTC)
2023-03-12 (2 years ago)
Launch vehicleUnknown
Launch site
Tyuratam Missile And Space Complex (TTMTR)
Object type
Payload
Rocket body
Debris
Shape & HBRTorus, 4 m
Radar Cross Section8.218 m², Large (>1 m²)

Expand to show TLE details & history

TLE from 1 day ago
0 BREEZE-M DEB (TANK)
1 55843U 23031C   24325.24772472  .00046911  81404-6  11188-2 0  9990
2 55843  49.0514 348.1025 6872043 159.4603 253.8590  2.86490069 14754
Epoch: 2024-11-20T05:56Z
Definitive object data (Epoch: 2024-11-20T05:56:43.415Z)
Latitude-0°
Longitude-160.80847°
Altitude24,604.483 km
Speed2.588 km/s
True Right ascension23h 12m 28s
True Declination0° 00' 00"
Sunlit
Object was in daylight at TLE epoch
Visualization TLE readout
Latitude35.88854°
Longitude-19.89786°
Altitude580.555 km
Speed9.779 km/s
Apparent Right ascension12h 36m 49s
Apparent Declination0° 14' 19"
Sunlit
Object is in full shadow
Visualization observer readout
Local Sidereal Time06:29:34
Azimuth89.02° E
Elevation-1.544°
Doppler factor1
Orbital elements
Apogee altitude28,954.806 km
Perigee altitude172.34 km
Semi-major axis20,941.71 km
Eccentricity0.6872043
Inclination49.0514°
RAAN348.1025°
Arg. of periapsis159.4603°
True anomaly200.56073°
Mean anomaly253.859°
Eccentric anomaly225.68607°
Mean motion0.71618 °/min
BSTAR0.0011188
Orbital period502.66 mins
Loading maneuver chart data...
Loading historical data...
Loading historical data...
Loading historical data...
Loading historical data...
Loading historical data...
Loading historical data...
Loading historical data...
Other satellites on launch #31 in the year 2023 (2023-03-12 UTC)

BREEZE-M DEB (TANK) Visibility forecast

Observer location: undefined°, undefined

Span
Click to sort rows by Start time (UTC) header in descending order
Start Az.
Max El. time (UTC)
Max El. Az.
Max El.
End time (UTC)
End Az.
224 mins2024-11-21 22:07:32.829Z131.971° SE2024-11-22 01:11:32.829Z112.67° SE34.214°2024-11-22 01:51:32.829Z62.199° ENE
|